Lapse_Rate
4.0 6.0 6.3 6.4 7.2 7.0 6.8 5.5 5.1 6.8 6.5 5.7 5.1 4.3 5.3 5.6 7.5 7.4 7.3 7.2 7.8 8.2 8.5 8.8 8.9 9.5 9.2 9.4 9.2 8.9 8.7 8.7 7.9 8.1 8.5 8.7 9.0 8.8 8.5 8.5 8.4 8.6 8.1 8.4
2.5 3.5 4.9 5.5 6.9 6.8 6.3 5.0 5.0 5.7 6.7 5.6 5.0 5.1 5.6 5.8 7.2 7.3 7.0 7.4 7.8 8.3 8.4 8.9 8.2 9.3 9.4 9.3 9.3 8.8 8.8 8.3 8.4 8.0 8.5 8.6 8.8 8.9 8.9 8.8 8.5 8.4 7.3 8.1
2.7 2.5 3.1 3.7 5.9 5.9 5.3 5.5 5.9 6.5 6.6 5.9 5.6 5.8 5.8 5.9 7.2 7.4 6.6 7.4 7.7 8.1 8.3 8.7 8.2 9.2 9.1 9.0 8.6 8.4 8.5 8.3 8.3 8.3 8.6 8.8 8.5 8.5 8.7 8.8 8.7 8.5 8.3 8.4
2.6 3.0 3.3 3.1 4.1 5.1 5.5 5.7 5.7 6.2 5.8 5.1 4.8 5.4 5.7 6.1 6.8 6.5 7.2 6.9 7.5 8.0 8.1 8.7 8.2 8.8 8.8 8.4 8.1 8.2 8.2 8.1 8.0 8.2 8.3 8.4 8.2 8.4 8.4 8.6 8.6 8.4 8.4 8.5
3.0 3.7 3.7 3.3 3.8 5.1 6.0 5.5 5.4 5.9 5.8 5.9 5.9 5.5 5.3 6.1 7.0 7.2 7.5 7.0 7.6 8.0 8.1 8.3 8.5 8.6 8.6 8.3 8.2 8.0 7.8 7.8 7.9 7.7 7.9 7.8 7.9 7.7 8.3 8.5 8.3 8.6 8.6 8.3
4.0 4.2 3.8 3.6 4.0 4.7 5.3 5.2 5.4 5.8 6.1 5.9 5.9 5.4 5.5 6.1 6.9 7.4 7.7 7.9 7.8 8.0 8.1 8.3 8.6 8.7 8.5 8.5 8.2 7.9 7.7 7.6 7.5 7.2 7.6 7.6 7.4 8.0 8.2 8.1 8.2 8.4 8.3 8.2
4.8 4.5 4.0 3.9 4.1 4.9 4.8 4.7 5.7 5.9 5.8 5.8 6.0 5.8 5.8 6.2 6.9 7.1 7.3 7.8 7.9 8.1 8.1 8.2 8.5 8.5 8.4 7.9 7.7 7.7 7.6 7.4 7.1 7.2 7.2 5.5 7.9 7.7 8.0 8.2 8.2 8.0 8.1 7.9
5.5 4.9 4.5 4.0 4.5 4.9 4.6 5.3 5.7 6.1 5.7 5.9 6.0 5.9 6.0 7.0 7.8 7.3 7.8 7.9 8.2 8.1 8.1 8.1 8.3 8.1 8.2 7.8 7.7 7.5 7.3 7.2 7.2 7.0 7.0 7.4 7.8 7.8 8.1 8.3 8.1 7.9 8.1 7.9
5.9 5.6 4.8 4.3 4.6 4.8 4.4 5.7 5.6 5.7 5.7 5.6 5.9 6.1 6.3 6.9 7.1 7.6 7.2 7.2 7.8 7.9 8.2 8.0 8.0 8.1 8.0 7.7 7.5 7.6 7.3 7.1 7.1 6.8 6.8 5.0 7.5 7.8 7.8 7.9 7.6 7.4 7.7 7.7
7.2 6.1 4.7 4.7 4.5 3.9 4.8 5.6 5.4 6.0 5.6 5.8 5.8 5.9 6.5 7.2 7.7 7.2 6.9 7.1 7.0 7.3 7.7 7.7 7.8 8.0 8.1 7.7 7.4 7.5 7.2 6.8 6.7 6.8 6.8 7.0 7.4 7.3 7.6 7.5 7.2 7.2 7.0 7.0
7.4 6.3 5.0 5.1 4.0 3.9 4.8 5.6 5.8 5.7 5.9 6.3 6.1 6.7 6.7 7.4 7.4 6.6 6.7 7.2 7.4 7.5 7.8 8.1 8.1 8.1 8.0 7.8 7.6 7.7 7.4 6.9 6.6 6.3 6.5 6.4 7.1 7.0 7.0 7.0 7.1 7.0 6.8 6.7
7.5 6.7 5.4 5.0 4.3 4.4 5.0 5.5 5.8 5.9 6.5 6.3 6.5 6.7 6.6 6.9 7.0 6.8 6.7 7.4 7.9 7.2 7.6 8.2 8.1 8.0 7.9 8.0 7.7 7.4 7.4 7.3 7.2 7.2 7.1 6.9 6.5 6.7 6.9 7.0 6.8 6.8 6.8 6.5
7.3 6.5 5.6 4.6 4.6 4.8 5.1 5.9 5.9 5.8 6.0 6.4 6.8 6.5 6.8 6.6 6.5 6.5 7.2 7.2 7.8 7.9 8.1 8.3 8.2 8.0 8.0 7.9 7.8 7.6 7.2 7.2 7.0 7.0 6.9 6.7 6.3 6.4 6.6 6.6 6.4 6.2 6.3 6.4
7.0 6.1 5.3 4.3 5.0 5.1 6.3 6.2 6.2 6.4 6.5 6.4 6.3 5.9 6.7 6.8 6.2 6.5 7.1 7.6 7.0 8.1 8.5 8.4 8.2 8.1 7.9 7.9 8.0 7.8 7.3 7.1 7.1 7.0 6.7 6.5 6.3 6.2 6.1 6.2 6.4 6.4 6.2 6.1
6.4 5.1 4.6 4.6 6.0 5.9 6.7 6.5 6.4 5.8 5.6 6.1 5.9 6.4 6.8 7.1 6.8 6.9 6.8 7.2 6.6 8.0 8.4 8.1 8.0 8.0 7.8 7.9 7.7 7.4 7.3 7.1 7.1 7.0 6.8 6.8 6.6 6.3 6.3 6.3 6.1 6.1 6.1 6.0
5.2 4.8 4.6 5.8 5.8 6.8 5.5 5.6 6.5 6.2 5.8 5.9 6.3 5.9 6.9 7.2 7.0 6.6 6.8 6.8 6.2 6.6 7.4 7.8 7.8 8.1 7.9 7.8 7.5 7.4 7.2 7.1 7.2 7.0 6.9 6.7 6.5 6.4 6.4 6.2 6.1 6.0 5.9 5.8
4.5 5.1 6.1 6.9 6.1 6.7 6.0 5.2 6.2 6.2 6.2 6.5 7.1 7.2 7.3 7.3 7.3 7.2 6.9 6.9 7.1 7.4 7.5 7.8 7.9 8.0 7.8 7.6 7.5 7.3 7.2 7.2 7.0 6.8 6.7 6.5 6.5 6.4 6.2 6.0 5.9 5.9 5.8 5.9
5.3 5.8 6.0 5.8 5.2 5.9 6.2 6.3 6.1 6.4 6.6 6.1 6.5 6.7 7.3 7.4 7.4 7.6 7.5 7.3 7.4 7.6 7.5 7.9 7.8 7.9 7.7 7.3 7.2 7.2 7.2 7.2 7.0 6.8 6.7 6.7 6.6 6.4 6.2 6.0 5.9 5.7 5.7 5.8
5.8 5.6 5.8 5.8 5.7 5.4 5.9 6.1 6.2 6.8 6.4 6.7 7.1 7.0 6.5 7.1 7.1 7.3 7.5 7.4 7.3 7.4 7.3 7.7 7.6 7.5 7.3 7.2 7.1 7.2 7.2 7.1 7.0 6.9 6.8 6.6 6.4 6.2 6.0 5.9 6.0 5.8 5.6 5.4
6.2 6.1 6.1 6.2 6.0 6.1 6.0 6.2 6.1 6.4 6.7 6.8 7.0 6.9 7.1 6.9 6.9 6.9 6.9 6.9 6.9 7.0 7.1 7.4 7.4 7.4 7.5 7.2 7.2 7.1 7.0 7.0 7.1 7.0 6.7 6.4 6.1 5.8 6.0 5.8 5.5 5.4 5.4 5.3
6.1 6.1 6.5 6.4 6.1 6.1 6.0 5.9 6.3 6.5 6.6 6.7 6.7 6.7 6.9 6.7 6.6 6.8 7.0 7.1 7.3 7.3 7.4 7.4 7.2 7.0 7.2 7.1 7.0 7.2 7.1 6.9 6.8 6.7 6.5 6.2 6.0 6.2 5.7 5.3 5.2 5.1 4.9 4.9
6.5 6.3 6.7 6.4 6.3 6.3 6.6 6.5 6.4 6.2 6.2 6.4 6.5 6.7 6.4 6.1 6.0 6.4 6.5 6.9 7.3 7.2 7.1 7.0 7.1 7.3 7.5 7.6 7.6 7.3 7.0 6.8 6.6 6.6 6.5 6.3 6.2 5.2 5.1 5.0 4.9 4.8 4.8 4.9
6.4 6.6 6.3 6.3 6.1 6.3 6.2 6.4 6.5 6.7 6.7 6.8 6.9 6.4 6.1 6.3 6.4 6.4 6.6 6.7 6.5 6.6 6.7 6.6 7.4 7.8 7.8 7.8 7.5 7.2 7.1 6.9 6.9 6.6 6.0 5.5 5.1 5.1 5.0 4.8 4.8 4.8 4.8 4.6
6.4 6.5 6.5 6.5 6.3 6.3 6.6 7.1 7.3 7.3 7.0 7.0 6.6 6.1 6.1 6.1 5.9 6.1 6.0 6.3 6.5 6.1 6.1 6.9 7.3 7.6 7.7 7.6 7.6 7.6 7.2 6.8 6.1 5.7 5.4 5.2 5.1 4.9 4.9 4.9 4.8 4.6 4.6 4.6
6.4 6.5 6.5 6.3 6.6 7.0 7.0 7.2 7.3 7.4 7.5 7.3 6.9 6.6 6.8 6.6 6.8 6.9 6.7 6.4 6.2 6.1 6.2 7.5 7.6 7.5 7.5 7.6 7.2 6.7 6.4 5.9 5.6 5.3 5.2 5.1 5.1 4.9 4.8 4.7 4.6 4.6 4.6 4.8
6.7 6.8 6.6 6.6 6.9 7.0 7.1 7.1 7.0 7.1 7.4 7.0 6.7 6.8 6.9 7.1 7.1 7.0 7.1 6.8 7.0 7.2 7.5 7.1 7.2 7.3 7.3 6.8 6.1 6.0 5.7 5.5 5.3 5.2 5.1 4.9 4.8 4.7 4.7 4.6 4.5 4.7 4.9 5.1
6.4 6.8 6.8 6.8 6.7 6.9 6.8 7.0 6.9 7.0 6.8 6.5 6.8 7.0 7.2 7.0 7.0 6.9 6.9 6.9 7.0 6.7 6.9 6.8 6.5 6.4 6.3 5.8 5.7 5.5 5.4 5.3 5.2 5.0 4.8 4.7 4.7 4.7 4.6 4.5 4.7 5.1 5.3 5.3
Wind_Speed
25 33 33 34 29 30 19 4 7 11 14 6 4 14 12 11 21 18 9 6 2 3 8 5 9 7 8 4 8 8 8 4 3 13 23 10 6 5 5 5 5 3 5 5
29 18 35 36 32 37 9 4 4 8 14 12 13 9 15 21 15 13 7 2 3 4 4 4 3 7 7 5 4 5 2 2 2 2 2 3 3 6 4 3 4 4 5 5
27 24 26 38 36 38 7 3 7 6 9 9 19 16 16 22 18 20 19 8 8 6 5 4 6 3 2 5 4 2 7 0 5 6 6 3 4 4 6 3 4 4 5 4
31 27 23 38 37 38 9 4 8 8 11 16 11 18 13 20 20 14 10 11 11 8 4 3 6 3 3 2 1 2 4 4 1 4 6 4 5 0 5 4 6 6 8 7
30 26 23 37 37 35 13 4 6 6 4 17 18 17 22 25 19 15 15 10 8 8 6 7 6 7 5 5 1 4 1 2 3 1 5 8 4 5 6 6 6 4 3 5
26 27 26 37 38 30 8 5 4 7 7 17 18 16 19 21 19 12 18 9 7 5 8 2 4 3 9 9 9 7 6 4 3 2 4 6 6 6 6 6 5 4 4 7
25 28 28 35 39 36 3 7 3 3 8 12 17 22 19 21 23 10 7 12 8 4 9 8 8 11 11 8 4 5 6 5 3 3 3 1 8 5 5 4 1 5 6 6
26 25 33 35 36 38 11 3 1 1 4 16 15 22 21 19 17 13 16 4 2 10 6 5 2 5 6 3 3 4 4 5 2 4 4 5 9 1 2 3 3 5 7 7
26 29 27 30 32 33 11 12 3 4 1 7 14 23 20 14 13 4 2 4 8 6 4 4 5 4 7 5 3 8 6 6 5 3 4 6 6 3 4 3 1 5 8 6
30 26 29 27 29 30 10 4 9 3 4 4 11 16 21 11 6 5 5 3 4 3 3 3 3 3 9 5 9 4 3 3 5 2 2 7 7 5 1 6 6 4 7 6
27 27 24 25 25 28 12 8 5 2 3 5 2 13 11 15 9 5 6 5 2 3 3 4 4 3 4 5 9 7 7 6 3 3 2 6 6 4 6 5 3 7 7 6
25 22 22 25 24 23 17 6 4 4 3 5 4 5 4 3 7 8 6 7 11 7 4 2 3 3 2 4 2 3 3 7 6 7 6 6 4 8 5 7 7 5 6 6
23 22 22 22 22 26 20 7 1 2 2 4 2 1 4 6 6 2 5 1 5 3 4 4 2 4 4 3 4 3 2 5 4 4 3 6 10 9 10 9 8 8 7 6
23 23 22 20 20 25 20 7 2 4 3 2 3 4 4 2 5 8 6 4 7 6 4 3 3 4 3 4 4 5 5 5 6 2 8 12 9 7 7 9 10 15 15 13
24 24 21 18 19 15 8 3 5 6 5 2 1 1 4 3 7 11 11 8 10 4 3 3 2 2 4 1 3 1 2 5 4 4 3 6 5 4 11 14 14 13 16 17
23 22 19 18 18 17 5 4 6 10 4 2 2 2 7 5 8 8 10 10 3 3 3 1 1 2 3 3 3 1 6 8 4 5 10 15 13 14 15 16 15 15 15 13
21 19 17 18 20 6 3 3 2 4 5 2 2 3 5 5 4 3 4 5 3 3 2 3 2 2 3 3 3 5 10 9 11 14 15 9 4 9 14 16 15 16 13 11
18 18 20 20 21 4 3 2 4 2 4 2 3 1 3 6 4 3 4 3 3 4 2 1 2 3 2 3 6 10 11 12 13 10 13 16 15 14 14 13 12 12 9 6
24 24 21 5 2 2 5 11 14 2 3 4 3 3 2 4 3 2 4 2 3 2 2 1 3 1 1 2 7 9 8 6 15 16 17 15 15 13 11 10 9 9 9 10
24 10 3 3 3 6 3 3 4 5 4 4 3 2 2 1 2 2 2 2 2 2 2 1 3 2 4 5 5 6 7 14 16 17 12 13 13 10 8 8 10 12 11 10
2 3 2 3 3 3 3 2 3 1 4 2 3 3 4 2 3 2 1 2 0 2 3 4 2 3 3 4 6 7 11 11 10 14 12 12 11 13 14 12 12 11 10 8
7 8 4 3 3 3 5 3 3 1 1 3 3 3 3 2 2 3 0 2 1 2 2 3 3 3 8 9 9 7 10 15 14 14 13 12 15 14 13 11 11 10 8 7
4 5 5 3 2 5 3 4 1 3 1 1 1 3 2 2 2 3 2 3 1 2 2 3 2 8 8 9 10 10 11 13 16 17 16 17 15 13 12 11 10 10 10 7
4 4 5 3 3 2 1 1 2 1 2 4 3 3 2 1 3 2 4 1 2 3 2 5 4 10 10 10 10 12 12 14 15 14 14 14 13 12 10 9 7 8 9 7
4 4 5 3 1 1 0 0 2 3 2 3 2 3 3 2 3 2 3 3 4 5 4 2 7 11 11 12 12 13 13 12 11 11 11 12 11 11 10 8 8 8 6 6
4 6 4 1 3 2 3 3 2 3 2 1 3 3 3 2 4 2 2 6 3 1 1 5 9 11 12 12 12 12 11 11 11 9 9 10 10 9 9 7 7 5 5 6
4 3 2 1 4 3 2 2 2 3 3 2 2 3 1 1 2 2 3 2 1 2 3 3 9 10 12 12 10 12 12 11 10 10 9 9 9 9 7 8 6 7 6 5
Wind_Direction
217 216 209 199 186 169 174 184 189 159 150 169 204 223 221 244 262 260 270 234 293 221 213 228 185 213 215 235 140 143 190 129 143 235 252 219 178 198 183 123 270 184 145 265
211 217 209 196 181 174 173 189 167 170 159 196 212 215 223 237 254 257 275 225 227 266 254 144 273 206 314 35 110 139 123 209 96 229 301 312 221 242 218 186 95 216 133 259
216 214 226 195 181 181 189 168 179 163 210 212 195 198 209 224 248 262 263 238 234 273 274 231 199 119 43 9 85 149 101 256 150 190 218 240 253 223 257 182 117 214 202 259
213 218 249 194 186 183 197 206 192 174 191 211 202 195 195 210 227 212 246 255 195 213 220 212 168 117 88 29 348 106 114 174 275 292 306 323 261 249 321 297 227 149 236 218
206 208 236 191 186 179 207 200 187 159 167 189 204 197 204 207 220 237 238 219 249 221 189 182 216 134 146 181 158 144 219 220 139 301 346 10 9 309 296 296 293 319 303 260
203 205 226 190 179 178 197 227 287 174 169 181 190 212 195 211 212 241 239 199 237 227 214 131 164 150 166 164 153 180 149 134 92 245 359 4 345 238 234 245 255 238 267 265
197 199 234 188 177 188 188 223 292 159 191 186 199 194 205 208 224 235 214 210 209 222 107 62 25 33 42 112 132 154 149 129 101 180 40 30 241 267 152 161 50 41 67 68
201 205 220 183 181 186 207 283 344 302 200 190 186 193 201 216 232 224 213 219 242 146 87 92 78 6 13 326 93 62 93 112 96 137 186 288 317 90 149 145 46 39 81 89
196 197 178 186 180 185 207 229 289 258 126 221 186 185 197 206 215 156 277 325 64 316 100 97 158 176 189 169 86 33 55 74 119 100 145 206 239 146 54 52 46 19 60 64
172 179 186 177 176 181 191 217 221 281 237 245 188 195 195 206 190 158 155 165 76 16 77 109 152 217 170 148 156 174 42 17 144 129 192 288 249 144 69 98 220 54 62 60
171 176 170 167 172 178 181 215 234 275 313 289 295 192 194 201 195 144 156 74 356 6 91 152 201 131 214 113 158 173 159 138 190 113 113 278 189 87 134 204 88 94 75 94
166 166 159 161 167 166 170 218 181 213 241 289 324 21 94 188 167 126 175 159 162 191 101 214 95 58 57 127 203 179 120 172 174 169 210 228 108 123 102 90 87 46 81 57
162 162 158 159 169 181 186 186 166 151 281 262 304 1 14 20 29 84 117 162 208 186 162 154 131 116 129 131 241 125 83 143 124 93 236 122 91 83 85 85 89 80 54 46
163 163 164 168 171 185 181 183 225 272 319 169 218 208 27 326 54 75 93 85 305 109 67 97 118 132 165 195 191 145 197 119 146 171 99 83 51 56 92 84 77 76 57 52
166 168 170 165 178 172 141 141 245 269 275 168 210 121 321 73 104 93 120 96 284 93 68 77 156 166 89 336 61 143 170 165 138 202 123 113 113 86 86 81 82 86 85 72
164 174 168 157 161 143 140 174 217 243 260 323 75 296 0 31 89 98 122 142 267 62 77 74 39 41 103 105 142 94 93 69 131 134 95 98 89 74 83 88 86 85 87 88
165 166 156 152 144 166 185 179 135 124 157 177 47 20 342 343 59 42 36 55 62 92 88 50 127 55 78 111 136 147 103 89 92 116 110 91 65 109 93 92 90 90 91 94
161 161 155 153 155 30 268 280 270 162 107 114 110 320 27 359 32 54 353 57 41 24 107 338 119 8 50 76 118 112 106 91 73 75 90 109 107 100 101 104 108 104 107 106
155 151 143 133 135 134 204 236 259 94 145 118 89 121 173 2 45 55 30 75 75 10 102 115 88 134 119 105 129 120 131 125 122 106 103 105 107 112 115 122 123 118 97 88
133 137 184 76 227 137 132 285 21 27 359 47 85 88 115 89 56 24 68 6 126 92 247 74 96 78 87 59 72 106 109 120 118 110 116 119 123 136 129 98 96 101 96 88
181 76 110 200 154 61 31 85 88 3 32 29 123 141 130 316 112 155 52 168 81 115 226 144 179 158 174 144 74 82 94 115 114 120 129 136 130 116 110 98 91 87 84 84
154 122 113 52 43 42 66 48 2 43 203 1 79 79 86 34 124 127 180 123 61 124 157 148 179 165 144 120 106 82 105 108 110 116 121 109 109 108 104 102 101 95 91 82
57 54 68 77 23 69 101 171 218 151 154 171 113 76 115 61 49 60 95 78 135 88 51 225 188 143 134 125 119 112 112 109 99 97 96 94 93 86 99 105 105 104 89 79
72 77 64 61 63 76 111 60 82 189 118 105 98 79 112 127 73 134 91 217 83 114 206 223 161 138 133 130 132 128 105 102 100 100 99 97 99 95 87 87 91 100 95 92
68 57 78 65 195 71 288 56 79 323 120 76 69 61 85 74 100 77 122 144 188 195 202 155 136 133 126 118 112 113 110 106 106 110 110 111 111 107 102 101 102 101 100 91
51 47 89 73 97 51 31 22 55 3 25 40 62 99 86 82 126 128 157 147 168 128 69 120 129 129 125 124 120 117 110 109 112 112 118 117 116 117 115 114 113 109 108 103
31 36 32 53 76 84 70 13 14 342 52 73 94 76 85 77 76 75 15 55 46 97 82 84 114 120 121 121 108 112 113 114 115 114 107 110 117 129 112 97 122 127 95 106